Location: Mt. Graham
(32.7020°N, 109.8880°W)
Time: 13:42:27
(UTC-07:00)

Hubble Space Telescope - Visible Passes

Search period start: 22 February 2018 00:00
Search period end: 04 March 2018 00:00
Orbit: 537 x 541 km, 28.5° (Epoch: 21 February)

Date Brightness Start Highest point End Pass type
(mag) Time Alt. Az. Time Alt. Az. Time Alt. Az.
22 Feb 2.0 04:57:58 34° SSE 04:57:58 34° SSE 05:01:13 10° ESE visible
23 Feb 2.3 04:48:18 32° SE 04:48:18 32° SE 04:50:58 10° ESE visible
23 Feb 1.5 06:24:08 10° WSW 06:28:04 44° S 06:32:01 10° ESE visible
24 Feb 2.7 04:38:36 26° ESE 04:38:36 26° ESE 04:40:43 10° ESE visible
24 Feb 1.6 06:13:57 10° WSW 06:17:46 41° S 06:21:40 10° ESE visible
25 Feb 3.1 04:28:54 21° ESE 04:28:54 21° ESE 04:30:26 10° ESE visible
25 Feb 1.7 06:04:15 14° WSW 06:07:28 38° S 06:11:17 10° ESE visible
26 Feb 3.5 04:19:12 16° ESE 04:19:12 16° ESE 04:20:09 10° ESE visible
26 Feb 1.8 05:54:33 17° WSW 05:57:09 34° SSW 06:00:53 10° SE visible
27 Feb 3.8 04:09:32 12° ESE 04:09:32 12° ESE 04:09:50 10° ESE visible
27 Feb 1.9 05:44:53 20° WSW 05:46:49 30° SSW 05:50:26 10° SE visible
28 Feb 2.1 05:35:15 22° SW 05:36:29 26° SSW 05:39:55 10° SE visible
01 Mar 2.3 05:25:40 21° SSW 05:26:08 22° SSW 05:29:19 10° SSE visible
02 Mar 2.6 05:16:09 18° SSW 05:16:09 18° SSW 05:18:37 10° SSE visible
03 Mar 3.1 05:06:41 13° S 05:06:41 13° S 05:07:44 10° SSE visible
